Theta_e
320 321 322 321 321 321 322 327 325 327 329 323 321 319 318 320 319 319 322 321 319 321 322 319 320 318 319 319 317 319 320 326 327 327 324 326 326 323 327 321 325 324 322 329 332 337 337 340 341 342 343 343 343 342 343 344 343 342 342 342 341 340 340 340 338 334 333 336 338 336 337 338 338 337 337 337 337 337 336 336 336 337 338 338 339 340 340 338 334 331 330 330 328 328 329 328 328
320 321 322 321 321 320 323 329 328 329 329 317 316 319 317 319 319 321 325 324 321 318 320 320 320 320 320 320 317 318 318 321 323 322 323 323 323 323 324 322 324 323 323 327 331 336 337 339 340 342 342 343 343 342 343 344 343 342 342 342 342 341 340 340 338 335 333 335 336 335 336 336 336 336 336 336 336 336 336 335 335 335 336 337 339 340 339 339 336 333 332 332 331 329 329 329 328
320 322 321 320 321 320 328 329 324 330 329 316 319 326 318 316 323 326 327 328 323 317 321 319 319 321 319 321 318 318 320 320 318 323 328 321 322 322 321 323 322 323 324 325 331 335 337 338 339 341 341 342 342 342 343 343 343 342 343 342 341 341 340 341 339 335 333 335 336 336 335 335 336 336 335 335 335 335 335 334 333 334 335 337 338 339 339 339 337 335 334 334 333 332 331 329 327
320 322 320 320 321 325 342 337 331 336 326 318 319 325 324 320 326 331 328 325 322 317 321 320 319 319 317 322 319 316 320 320 316 322 330 321 322 322 321 323 322 324 325 326 330 332 336 338 338 340 341 342 341 342 342 342 343 342 342 341 341 341 340 341 339 336 334 334 335 336 336 335 335 335 335 334 334 333 334 333 332 332 333 336 337 339 339 338 338 336 335 334 334 333 332 331 330
319 322 318 318 322 326 338 331 330 331 321 323 317 317 331 330 326 328 328 323 320 320 321 321 320 317 316 321 319 319 321 320 315 316 323 322 322 322 322 323 321 323 325 327 330 332 335 337 338 339 342 342 341 342 342 342 342 341 341 341 341 340 340 340 340 337 336 334 334 336 335 336 335 334 334 333 333 333 333 333 333 332 332 336 338 338 338 338 337 336 335 333 333 331 330 331 332
320 320 318 317 317 317 325 321 320 322 323 328 317 317 328 328 325 322 326 324 320 320 319 319 320 318 318 320 317 319 320 317 316 316 320 322 322 322 322 322 321 323 325 328 330 332 332 336 338 338 342 342 341 341 341 342 341 341 341 341 341 340 340 340 340 338 337 336 335 336 335 336 335 334 335 334 333 333 333 333 333 332 333 336 337 338 338 337 337 335 334 333 332 329 325 324 327
318 318 323 322 319 321 330 324 321 322 320 320 316 319 322 321 321 319 322 322 320 319 317 319 318 318 319 317 315 315 315 316 318 319 320 322 324 323 322 322 322 323 326 329 330 334 333 335 337 338 342 341 341 341 341 341 341 341 341 340 340 340 340 339 340 338 338 337 335 336 336 335 334 335 336 335 334 333 333 332 332 333 334 335 336 337 337 337 335 334 333 331 329 325 322 320 322
318 320 326 333 333 334 337 325 325 326 318 316 317 320 322 320 318 319 321 319 319 319 319 320 318 319 318 315 319 317 313 319 321 320 321 323 325 324 321 321 323 323 327 329 331 334 334 334 336 338 340 341 341 340 341 341 340 340 340 340 339 340 340 339 339 338 338 337 336 336 335 334 335 337 337 336 334 333 333 332 332 332 333 335 336 336 336 335 334 332 331 330 328 326 325 322 320
317 319 325 332 334 336 335 324 321 323 322 320 319 323 324 320 316 318 321 319 318 319 321 320 317 318 318 317 323 320 316 320 322 322 323 323 324 323 320 322 323 325 327 329 331 333 335 335 335 337 339 340 341 340 341 340 340 340 340 340 340 339 339 339 339 338 337 337 337 336 335 334 336 337 337 337 334 332 332 332 332 332 333 335 336 335 335 333 332 332 331 330 328 328 326 319 313
318 319 324 332 333 329 326 321 321 322 323 322 319 324 323 317 316 318 319 319 317 318 319 316 317 319 319 319 322 319 317 320 321 322 322 322 323 321 321 322 323 326 327 328 330 332 334 335 334 336 338 339 340 340 340 340 340 339 340 340 340 339 338 339 338 338 336 336 336 336 335 334 336 337 337 337 335 333 332 332 333 334 334 335 335 334 334 332 331 331 330 330 329 329 326 319 312
327 328 332 337 330 322 319 321 329 329 327 324 320 323 321 316 316 319 319 317 317 318 317 315 318 322 320 321 324 319 315 318 320 320 320 322 321 320 321 322 324 326 329 329 330 332 333 334 335 335 337 339 340 340 340 340 340 339 340 340 340 339 338 338 338 338 336 335 336 336 335 334 337 337 337 337 337 336 334 332 331 333 333 334 334 332 332 331 331 330 330 329 329 328 326 324 315
326 333 343 343 325 319 321 323 330 335 334 326 319 319 317 315 317 316 317 317 317 319 318 317 316 318 320 322 321 315 313 318 321 319 320 321 320 320 321 322 324 326 329 331 331 332 333 334 335 335 336 338 339 340 339 339 340 340 340 340 340 340 338 337 337 338 335 335 336 336 334 334 336 337 337 337 337 336 335 334 331 331 331 332 332 331 330 329 329 329 329 328 327 327 326 325 314
333 332 337 330 320 323 322 320 325 331 331 322 317 318 313 315 318 315 317 319 317 317 317 317 316 315 318 318 318 319 316 317 320 319 319 320 320 320 320 321 323 325 328 330 332 333 333 334 335 335 335 337 339 339 339 339 340 340 340 339 340 340 337 337 337 336 335 335 335 335 334 334 336 337 337 337 337 337 335 335 332 331 331 331 331 330 329 327 328 328 327 326 326 326 325 325 311
333 335 333 320 317 327 323 318 323 323 319 318 319 319 315 315 317 316 316 318 318 317 313 312 314 315 316 315 323 330 319 314 319 319 318 319 320 320 320 320 321 323 325 328 330 332 333 334 335 335 335 336 337 338 339 339 340 340 340 339 339 340 338 337 337 336 334 335 335 335 334 334 335 337 337 336 337 337 336 335 333 333 332 332 331 331 329 328 327 326 326 325 325 325 324 323 309
325 336 338 324 319 324 319 318 323 321 318 318 317 315 316 315 315 318 317 316 318 314 310 310 311 314 315 314 320 324 315 314 317 318 318 318 318 320 320 320 321 322 323 325 328 332 334 334 335 335 335 335 336 337 338 338 340 340 339 339 339 339 338 338 338 335 334 336 336 336 335 334 335 336 337 337 337 337 336 335 334 333 333 332 331 331 329 329 328 326 325 323 323 323 323 321 306
324 334 332 321 317 316 315 319 321 320 321 322 318 314 317 316 312 316 315 313 316 312 312 313 311 313 315 315 316 315 312 313 315 317 319 319 319 320 320 320 321 321 325 327 329 331 334 336 335 335 335 334 335 336 337 337 338 340 339 338 339 339 339 338 337 335 334 335 336 336 335 335 335 335 336 337 337 337 336 335 335 334 333 332 331 331 329 329 328 326 325 322 322 321 321 318 305
326 333 331 318 315 316 316 321 322 319 324 327 322 317 316 317 315 313 310 311 315 314 315 317 312 311 315 315 313 311 311 312 314 317 318 320 321 320 321 322 323 325 328 329 329 329 332 336 336 336 336 335 335 334 336 337 337 339 339 338 338 339 339 338 337 336 335 336 337 336 336 335 336 335 336 336 337 337 336 335 335 335 333 333 332 331 330 329 328 327 325 323 322 320 318 316 306
334 336 326 316 317 320 322 327 325 319 320 322 319 316 315 317 318 314 311 315 318 317 316 316 313 311 312 312 311 311 311 313 315 318 320 321 322 322 323 323 325 326 327 329 330 329 330 332 335 336 336 335 335 335 335 336 337 338 338 338 338 337 338 339 338 337 335 336 337 337 336 335 336 335 335 335 336 336 335 335 335 335 334 333 332 331 330 329 328 327 325 324 322 320 317 315 308
339 332 317 323 330 325 323 328 325 319 317 318 318 315 314 314 314 313 313 318 320 318 316 315 315 315 312 310 310 310 310 311 315 318 320 320 319 319 319 319 320 321 323 326 328 330 330 331 332 333 335 336 336 335 335 335 336 337 337 337 337 337 338 339 339 338 337 336 336 336 336 335 336 335 334 335 336 335 335 334 334 335 334 333 332 331 331 329 327 326 325 324 323 321 317 314 309
329 325 319 334 336 325 323 325 322 319 316 317 319 314 313 315 313 312 314 317 318 317 317 316 316 315 314 311 307 307 308 308 310 311 312 311 310 310 310 310 311 313 315 317 320 323 326 329 331 332 333 334 335 336 336 335 335 336 336 336 336 337 338 339 339 338 337 337 336 336 335 335 336 335 334 334 334 335 336 335 334 335 334 333 332 331 330 328 327 326 325 325 323 322 318 313 309
318 321 327 331 324 319 323 324 324 321 315 315 317 315 316 316 313 314 314 315 317 315 315 316 314 313 313 311 304 303 305 305 305 305 304 304 305 305 305 305 306 308 310 311 314 315 318 322 327 331 332 333 334 335 336 336 335 335 335 336 336 336 336 339 338 337 337 337 337 336 336 336 336 336 334 335 334 334 335 336 334 334 334 333 331 330 330 328 327 326 325 325 324 324 321 314 307
318 323 327 326 320 318 321 324 323 318 314 314 317 316 315 314 313 315 315 315 316 314 313 313 311 309 310 309 304 303 303 303 303 302 302 302 302 303 304 305 306 307 309 310 311 312 314 316 321 326 330 332 333 334 335 336 336 335 335 336 337 336 336 338 338 338 336 336 337 337 336 335 336 336 335 335 336 333 335 335 333 333 333 333 332 331 329 327 326 326 325 325 325 324 323 317 307
319 323 322 324 320 318 320 321 319 315 315 316 317 314 312 313 314 315 315 315 315 313 312 310 308 305 304 305 304 304 304 302 301 301 301 301 301 302 302 304 306 307 309 311 311 312 313 315 317 321 325 329 332 334 335 336 336 335 335 335 337 337 336 336 337 339 338 335 335 336 337 336 336 336 334 335 336 333 333 334 335 334 334 333 333 331 329 328 327 326 325 325 325 324 324 321 312
319 323 324 321 317 319 322 321 319 316 315 316 314 311 311 315 314 313 314 313 313 311 307 304 303 302 303 303 302 302 302 300 300 301 300 300 300 301 302 303 305 307 310 312 314 314 314 314 316 318 320 324 329 333 334 335 336 335 334 334 335 336 336 335 334 336 337 335 336 336 336 336 336 335 334 333 334 334 332 333 334 334 335 334 333 332 330 329 328 327 326 325 325 324 323 323 319
320 323 324 319 317 321 321 318 318 316 314 313 311 313 313 313 312 313 313 311 310 307 302 302 303 303 302 302 301 300 299 299 299 299 300 300 300 302 303 304 306 308 310 312 316 317 316 314 315 317 318 320 325 330 333 334 334 334 333 333 334 335 336 337 335 335 333 332 335 336 335 334 333 334 334 332 333 335 334 332 332 332 333 333 332 331 330 330 328 326 326 326 325 325 324 322 321
320 321 321 317 315 317 315 315 316 315 314 312 311 315 314 310 311 313 312 310 308 305 304 305 305 304 301 300 300 299 298 298 298 298 299 299 300 302 302 303 305 306 308 311 315 318 318 316 315 316 318 319 322 327 331 332 332 332 332 333 333 333 333 334 335 335 334 332 332 333 334 334 331 331 333 333 333 334 333 331 331 332 331 331 332 330 330 330 327 326 326 327 326 325 324 322 321
317 319 318 316 315 315 314 315 314 313 313 312 312 315 314 309 312 315 311 308 306 309 309 305 304 303 300 300 299 298 298 297 298 298 298 298 299 299 299 301 303 304 307 310 314 317 320 319 318 318 320 321 321 324 328 330 331 331 331 331 332 332 332 331 331 332 332 332 331 332 333 333 330 330 331 331 331 333 332 330 330 331 330 330 331 330 330 329 327 327 327 326 326 325 323 322 321
313 314 315 317 317 315 315 315 313 311 312 313 312 314 313 309 313 315 310 306 308 313 312 305 305 302 300 300 298 298 297 297 297 297 297 297 297 298 298 299 301 304 306 309 312 316 320 321 321 322 323 323 324 324 326 329 329 330 331 330 330 331 331 331 330 329 329 329 330 331 332 332 330 330 332 331 331 331 331 329 329 329 329 329 330 329 329 329 328 328 328 327 326 325 323 322 321
313 313 314 318 319 317 315 314 313 312 313 314 313 315 317 316 315 312 308 307 309 313 310 306 304 301 300 300 298 297 297 297 296 296 296 296 297 297 298 298 299 303 305 308 312 316 320 322 323 324 325 325 325 325 326 328 328 328 329 330 330 330 330 330 330 329 330 330 330 329 330 330 329 329 330 330 331 331 330 329 328 328 328 328 328 328 328 328 328 328 327 327 326 325 324 322 321
313 313 313 316 318 320 314 310 313 313 313 313 312 317 325 328 319 310 308 308 310 313 308 305 304 301 300 299 298 298 296 296 296 295 296 296 296 297 297 299 299 301 305 309 313 315 318 321 323 324 325 326 325 326 327 327 328 328 328 329 330 330 331 331 331 331 332 332 332 330 330 330 330 330 330 330 330 330 330 330 329 329 329 329 329 329 329 328 328 328 327 326 326 325 324 323 321
315 311 317 320 316 325 322 311 314 313 312 311 312 319 325 327 319 308 307 307 310 315 308 305 304 300 300 299 298 297 296 296 295 295 295 295 296 296 297 299 300 302 305 308 310 313 317 320 322 323 325 326 326 326 327 328 328 329 329 329 329 329 330 330 330 330 331 331 331 330 330 330 331 330 330 330 330 330 330 329 329 329 329 330 330 330 329 329 328 327 327 326 325 325 324 323 322
324 313 324 327 317 326 327 314 314 314 311 310 313 319 320 322 318 307 306 308 313 316 308 304 303 300 299 298 297 297 296 295 295 295 295 295 296 296 297 298 299 301 303 306 309 313 316 319 321 322 323 324 325 325 326 327 327 328 328 327 327 327 327 327 326 326 326 327 327 327 327 327 329 328 328 329 329 329 329 329 328 328 329 329 330 329 329 328 327 326 326 326 325 324 323 322 321
328 317 322 329 320 322 322 316 316 315 312 311 313 318 318 320 318 309 306 310 315 315 307 303 301 300 299 297 297 296 296 295 295 294 294 295 295 296 296 297 299 300 302 305 308 311 314 316 318 320 321 322 323 323 324 325 325 325 324 324 324 324 323 323 323 324 323 323 323 323 323 324 324 324 325 325 325 325 325 325 325 326 326 327 327 329 328 327 326 326 326 325 324 324 323 322 321
328 319 317 324 320 318 320 319 317 315 316 315 314 315 315 318 316 310 306 308 315 312 304 302 300 299 298 297 297 296 295 295 294 293 293 294 295 295 296 297 299 300 302 304 306 308 310 312 315 317 319 320 320 321 322 322 322 322 321 321 321 320 320 319 319 321 320 320 320 319 320 322 322 321 322 322 321 321 321 321 321 321 322 322 323 324 325 325 325 325 325 324 324 323 322 322 321
329 324 320 323 320 317 320 319 316 316 317 316 315 316 317 318 314 310 305 305 310 307 301 301 300 299 298 297 297 296 295 295 294 293 293 293 294 295 296 297 299 300 302 304 305 307 308 310 312 314 316 317 318 319 319 319 320 319 319 319 318 317 316 316 316 316 315 316 316 315 317 318 318 318 318 318 318 318 318 318 318 318 319 319 318 318 318 319 319 319 319 320 320 321 321 320 319
325 326 327 327 323 321 320 318 317 314 314 317 316 317 319 319 315 310 305 303 305 303 300 300 299 299 298 297 297 296 295 295 294 293 292 293 293 294 296 297 298 300 302 304 305 306 307 308 310 312 313 314 316 317 317 317 317 316 316 316 313 311 311 312 311 310 310 310 310 311 313 314 314 314 314 315 315 315 315 315 315 315 316 316 315 315 314 314 314 315 315 314 314 315 316 317 316
319 320 323 324 322 321 318 316 318 312 313 319 316 317 320 318 315 308 304 304 303 301 301 300 299 298 298 297 297 296 295 294 293 293 292 292 293 293 294 295 297 300 301 303 303 304 304 306 307 308 310 312 313 313 314 314 314 313 313 311 308 306 307 308 307 306 306 306 306 307 307 308 309 310 311 311 311 311 312 312 312 312 313 313 313 312 312 312 312 312 312 312 312 312 312 313 312
315 316 317 319 319 319 315 314 315 312 313 319 316 316 319 317 314 306 303 305 304 301 301 300 299 298 298 298 297 296 296 294 293 292 292 292 292 292 292 293 295 296 297 299 300 301 303 304 305 305 307 309 309 309 309 310 309 309 309 307 306 305 305 305 304 303 304 303 304 304 304 303 304 305 305 306 307 307 308 309 309 309 310 310 310 310 310 310 310 310 309 309 310 310 310 310 309
313 315 314 317 318 318 319 315 314 313 313 320 319 317 318 316 309 303 302 303 301 299 300 299 298 298 298 298 297 296 296 295 293 292 291 291 291 291 291 292 292 293 294 296 298 301 302 303 303 304 305 306 306 307 306 306 305 306 306 305 304 303 302 302 302 301 302 302 302 302 302 302 302 302 302 302 303 303 304 304 304 305 306 307 308 308 308 308 308 308 307 306 307 307 307 307 307
315 316 316 319 318 319 325 320 316 315 312 317 318 315 317 314 307 304 302 301 300 299 299 298 298 298 297 296 296 296 296 296 294 293 291 291 291 291 291 291 291 292 292 294 296 298 300 301 302 303 303 304 304 305 304 304 304 304 304 303 303 302 301 301 302 301 301 301 301 301 301 301 301 301 301 301 301 301 301 301 301 302 302 303 304 305 305 305 305 305 304 303 303 304 304 304 305
319 319 317 320 319 319 324 320 317 317 315 314 314 317 324 321 315 310 304 301 301 300 299 299 298 297 296 296 296 296 295 294 294 293 291 290 290 290 290 290 290 291 291 292 294 296 297 299 301 302 302 303 303 303 303 303 304 303 303 303 303 302 301 301 300 299 299 299 299 299 299 299 300 300 300 300 300 300 300 300 300 300 300 301 301 301 301 301 302 302 302 302 301 301 301 301 302
323 324 319 319 320 321 321 316 316 321 321 316 312 321 334 330 321 312 306 305 303 301 301 300 298 298 297 297 297 296 295 294 293 292 291 290 289 290 290 290 290 290 291 291 293 294 296 297 299 300 300 301 301 302 302 302 302 302 302 301 299 297 296 295 294 294 295 295 295 295 296 296 297 298 298 298 299 299 299 299 299 299 299 299 299 300 300 300 300 300 300 301 301 300 299 299 300
324 323 319 317 316 318 319 317 318 323 323 315 310 318 330 332 326 314 306 307 304 302 302 300 299 298 298 298 297 296 296 294 293 291 290 289 289 289 289 289 289 290 290 291 293 294 295 296 297 298 298 298 299 299 299 300 299 299 298 297 295 293 291 290 291 291 292 292 292 292 292 292 293 293 294 295 295 296 297 297 298 298 298 298 298 299 298 298 298 298 298 299 299 299 299 299 298
326 320 319 320 318 318 320 318 319 322 321 318 318 317 320 327 323 311 306 308 305 303 303 300 299 299 298 298 297 296 296 295 294 292 290 289 289 289 288 289 289 289 290 291 293 294 295 295 296 296 296 296 296 297 297 297 297 296 296 295 293 291 290 289 289 290 290 290 290 289 289 289 289 289 289 290 290 291 292 293 294 295 295 296 296 296 297 297 297 298 298 298 297 297 298 298 298
324 316 316 320 319 321 322 321 321 318 315 322 326 317 316 326 322 309 307 310 309 306 304 301 300 299 299 298 297 296 295 294 292 292 290 288 288 289 288 289 289 289 290 290 291 292 293 294 294 295 295 294 294 294 295 295 295 294 294 293 291 289 289 288 288 288 288 288 288 287 287 287 287 287 287 287 287 287 288 288 289 289 289 290 291 292 293 294 295 296 296 297 297 296 296 296 297
316 311 316 318 317 320 322 323 323 317 315 325 327 317 317 327 325 314 309 313 315 310 304 302 301 300 300 299 297 295 295 294 292 290 289 289 288 288 288 288 289 289 289 290 291 292 292 293 293 293 293 292 292 293 293 292 292 292 292 291 290 288 288 287 287 287 287 287 287 286 286 286 286 286 286 286 286 286 286 286 286 286 286 286 286 287 288 288 289 291 292 293 294 295 295 295 295
311 314 323 321 318 320 321 323 321 316 322 326 322 317 316 321 327 323 315 315 316 311 305 302 301 301 300 300 298 296 295 295 293 290 288 289 289 288 288 288 288 288 289 290 291 292 292 292 292 292 291 291 291 291 291 291 290 290 289 289 288 287 287 287 287 286 286 286 286 286 287 287 287 287 287 287 287 287 287 287 287 286 286 286 286 286 286 286 286 286 287 288 289 290 292 293 294
313 321 326 322 322 320 319 323 320 319 328 325 315 313 314 318 327 325 317 311 308 308 306 303 302 301 300 300 299 298 296 295 294 291 289 288 289 288 288 289 288 288 289 290 291 291 291 291 291 290 289 289 289 289 289 289 288 288 287 287 287 286 287 286 286 286 286 287 287 287 287 287 287 287 287 288 287 287 288 288 288 288 287 287 287 287 287 287 287 287 286 286 286 286 287 288 289
317 323 324 324 325 321 322 325 321 322 324 315 312 314 314 318 322 320 318 311 304 304 304 302 301 301 300 300 299 298 296 295 295 293 290 288 288 288 288 288 288 288 289 290 290 290 290 290 290 290 288 288 288 288 288 287 287 287 286 286 286 286 286 286 286 287 287 287 287 287 287 287 287 287 287 288 287 288 288 288 288 288 288 288 288 288 288 288 288 288 288 287 287 287 286 286 286
317 321 324 325 325 325 327 325 318 320 318 310 310 313 315 319 317 315 314 308 301 300 301 301 300 299 299 299 299 298 296 295 295 294 290 288 288 288 288 288 288 288 289 289 289 289 289 289 289 288 287 287 287 287 286 286 286 286 286 286 286 286 287 287 287 287 287 287 287 287 287 287 287 287 287 287 287 288 288 288 288 288 288 288 288 288 288 288 288 287 287 287 287 287 287 287 287
315 319 320 322 326 328 327 325 323 324 320 313 309 313 321 323 314 307 305 302 298 299 298 299 300 299 298 298 298 298 297 296 295 294 290 288 288 288 287 288 288 288 288 288 288 288 288 288 287 287 286 286 286 286 286 286 285 286 286 286 286 287 287 287 287 287 287 287 287 287 287 287 287 287 287 287 287 287 287 287 287 287 287 287 287 287 287 287 287 287 287 286 286 286 286 287 286
314 314 316 319 323 326 322 318 320 320 319 317 313 317 322 318 307 301 301 300 298 298 297 298 300 299 298 298 298 298 297 296 295 294 291 288 289 289 288 288 287 288 288 288 288 287 287 287 286 286 286 285 285 285 285 286 286 286 286 286 287 287 287 287 287 287 287 287 287 287 287 287 287 287 287 287 287 287 287 286 286 286 286 286 286 286 286 286 285 285 285 285 285 285 285 285 285
314 312 319 319 315 322 322 314 310 312 318 318 316 319 318 312 308 302 300 301 299 297 298 298 299 298 298 298 298 297 297 296 295 293 290 288 289 288 288 287 287 287 287 287 287 287 287 286 286 286 285 285 285 285 285 286 286 286 286 287 287 287 287 287 287 287 287 287 287 287 287 287 287 287 287 287 287 287 287 286 286 285 285 284 284 284 284 284 284 284 284 284 284 283 284 284 284
317 317 320 315 311 318 322 318 316 316 320 320 316 318 318 316 315 307 301 304 303 299 299 298 298 298 298 298 297 297 296 295 294 292 288 288 289 289 288 287 287 287 287 287 287 287 286 286 286 286 286 285 285 285 285 286 286 286 287 287 287 287 287 287 287 287 287 288 288 288 288 288 288 288 288 288 287 287 287 287 286 286 285 284 283 283 282 282 282 282 282 282 282 282 283 283 283
316 318 315 314 317 320 319 319 322 320 321 323 318 315 316 317 317 314 310 310 306 301 299 299 298 298 298 298 297 296 295 295 294 293 289 288 289 289 288 287 287 287 287 287 287 286 286 286 286 286 286 286 286 286 286 286 286 287 287 287 287 287 287 287 287 287 287 288 288 288 288 288 288 288 288 287 287 287 287 287 286 286 285 284 283 283 282 282 281 281 281 281 281 281 281 282 282
311 312 310 313 317 320 320 319 320 321 321 323 320 315 318 318 316 320 320 311 304 302 300 299 298 297 297 298 297 296 296 295 294 293 290 288 289 289 288 287 287 287 286 286 286 286 286 286 286 286 286 286 286 286 286 287 287 287 287 287 287 287 287 287 287 287 287 287 286 287 287 287 287 287 287 287 287 287 286 286 285 285 284 283 283 282 282 281 281 281 281 281 281 280 280 280 281
313 314 314 315 314 315 319 317 316 321 323 325 322 317 320 320 314 317 318 309 302 301 300 299 298 297 297 297 297 297 296 294 293 292 289 288 289 290 288 287 287 287 287 287 286 286 286 286 286 286 286 286 287 287 287 287 287 287 287 287 287 287 286 286 286 286 286 286 286 286 286 286 287 287 287 286 286 286 286 285 284 283 282 282 281 281 281 280 280 280 280 280 280 280 280 280 280
314 316 316 316 316 316 318 316 316 318 319 323 323 317 319 319 309 309 312 307 301 300 300 299 298 298 298 297 297 297 296 295 293 291 289 287 289 290 289 288 288 289 289 288 287 287 286 286 286 286 287 287 287 287 287 287 287 287 286 286 286 286 286 285 286 286 286 286 286 286 286 286 286 286 286 285 285 284 284 283 283 282 281 281 280 280 280 280 279 279 280 279 279 279 279 279 280
Wind_Speed
10 10 11 9 8 5 3 4 2 2 4 3 1 1 2 3 1 1 3 3 1 2 3 1 2 3 0 2 3 5 4 5 5 3 1 5 4 2 10 10 3 6 20 23 25 28 27 26 24 22 21 19 19 18 18 16 15 14 13 12 11 10 9 8 8 8 11 12 10 10 10 9 9 9 9 8 8 7 7 8 8 7 6 5 4 5 6 7 6 6 7 7 7 7 7 7 8
10 11 10 8 6 3 1 3 3 3 5 3 2 2 3 2 1 3 5 4 3 2 3 2 1 2 2 2 2 2 2 5 5 3 3 6 6 4 9 10 5 5 17 23 24 28 27 27 25 23 22 20 20 19 18 17 15 15 13 12 11 10 9 8 7 8 10 12 11 10 10 10 9 8 8 7 7 6 6 8 8 8 7 5 4 4 5 6 6 6 5 5 5 4 4 4 4
11 10 10 7 3 3 1 3 2 1 5 3 3 4 2 1 4 6 7 7 6 3 4 2 1 1 3 4 1 3 2 4 3 2 4 6 4 3 7 11 7 5 15 21 22 27 28 27 25 24 23 21 21 20 19 18 16 15 14 12 11 10 9 8 7 7 9 11 11 10 9 9 8 7 7 6 6 5 6 7 7 8 8 6 5 4 5 6 5 4 3 3 2 2 2 1 1
11 8 10 5 1 4 4 4 2 4 3 2 1 4 2 3 6 7 7 7 6 3 2 0 0 2 3 2 1 2 3 4 3 4 2 4 2 2 6 11 8 7 14 19 20 25 27 27 26 25 24 22 22 21 20 19 18 16 15 14 12 11 10 9 8 7 8 9 10 9 8 7 7 7 6 5 5 5 5 5 5 6 6 5 4 5 6 5 4 4 2 1 1 1 1 2 2
9 6 8 4 2 2 3 3 2 4 2 4 2 3 4 6 5 6 7 7 4 2 1 2 1 2 2 1 2 2 3 2 2 5 2 4 3 3 6 11 10 8 13 18 18 22 26 27 26 25 25 23 22 22 21 20 19 17 16 15 13 12 10 10 9 8 8 8 9 8 7 6 6 6 5 5 5 5 5 4 4 4 4 4 4 4 4 4 3 3 1 1 3 3 4 5 5
8 4 6 6 3 1 2 3 2 1 4 5 3 3 5 5 5 5 7 7 2 3 2 1 0 1 1 2 2 3 3 0 2 3 3 4 3 3 7 10 10 8 12 17 17 20 24 26 27 25 25 24 23 22 22 21 20 18 17 16 14 13 12 11 10 9 9 9 9 8 7 6 5 5 4 4 5 5 5 4 4 3 3 3 3 4 3 3 2 2 2 2 4 4 7 8 8
8 3 4 6 2 2 3 3 3 1 2 4 1 4 6 5 5 3 7 5 1 2 2 0 1 1 1 3 2 4 3 1 2 2 4 5 4 3 7 10 9 9 10 16 17 18 21 24 26 25 25 25 23 22 22 21 20 19 18 17 15 14 13 12 11 11 11 10 10 9 8 7 6 5 4 4 5 5 4 4 4 3 2 3 3 3 3 3 2 3 3 4 6 8 10 11 10
7 3 0 4 2 4 4 2 2 2 0 2 3 5 6 5 4 0 4 2 0 2 3 2 1 1 1 3 2 4 2 3 5 6 7 5 5 4 7 9 8 8 10 15 16 17 20 23 26 26 26 25 24 23 22 21 21 20 19 18 16 15 14 13 12 12 12 11 11 10 9 7 6 6 5 5 4 4 4 4 4 4 2 2 3 3 2 1 2 4 5 5 7 10 14 14 11
6 4 0 3 2 3 3 1 2 2 3 3 4 6 5 3 3 2 2 3 2 2 4 4 0 1 3 3 3 5 4 3 5 5 5 4 5 5 7 8 7 7 9 13 15 16 18 21 25 26 26 25 24 23 23 21 21 20 19 18 17 16 15 14 14 13 14 13 12 11 10 9 8 7 7 6 5 5 4 4 4 4 3 2 3 3 3 1 2 5 6 7 9 13 15 14 11
5 5 2 3 3 4 3 1 2 2 4 4 4 7 5 2 2 1 1 3 2 1 5 3 1 2 3 2 3 2 4 5 3 2 2 4 5 5 7 7 7 7 8 12 13 14 16 19 23 26 26 25 25 24 23 21 21 20 20 18 17 17 16 16 15 14 15 14 13 12 11 10 9 8 8 7 6 5 5 5 5 4 4 4 4 4 4 4 4 6 8 9 11 13 14 13 12
3 4 2 4 4 3 1 2 4 3 6 4 4 6 5 2 1 0 0 3 3 2 4 1 1 1 2 3 3 2 6 6 1 1 2 4 5 5 7 7 7 7 8 10 11 13 14 17 20 24 26 26 25 25 23 22 21 21 20 19 18 17 17 17 16 15 15 16 15 13 13 12 10 10 9 9 8 7 6 6 6 5 4 4 4 4 5 6 6 8 11 11 12 13 14 13 13
2 3 4 5 3 2 3 2 5 5 7 4 3 3 3 3 2 1 2 2 3 5 4 1 1 2 2 4 3 4 7 4 2 1 3 5 5 6 7 8 8 7 7 9 11 12 13 15 18 22 25 26 25 25 24 22 21 21 21 20 19 18 17 17 17 16 16 16 16 14 14 13 12 11 10 10 10 8 8 7 7 6 5 4 3 4 6 8 7 9 12 12 12 13 13 13 13
3 1 5 3 2 3 3 2 4 4 5 3 2 3 1 1 1 3 3 2 1 3 3 4 2 2 0 3 4 6 6 5 1 2 4 5 6 7 8 9 9 8 8 9 11 12 13 14 16 19 23 26 26 25 24 23 23 22 22 21 20 18 17 17 17 17 17 17 16 15 14 14 13 12 11 11 10 10 9 9 7 6 6 5 4 5 7 7 7 9 12 13 13 14 14 14 12
3 3 5 3 1 3 4 0 2 1 2 3 3 3 3 1 3 4 4 2 4 2 2 2 3 2 1 3 5 5 5 7 3 2 4 5 7 7 8 10 11 11 9 10 11 12 13 13 14 17 20 24 26 26 25 25 24 23 22 22 22 20 18 18 17 17 18 18 17 16 15 15 15 13 11 11 11 11 10 10 8 7 6 5 6 6 6 7 9 10 13 14 14 15 15 14 11
3 2 5 4 2 0 3 1 1 4 2 3 2 2 3 2 4 3 3 0 4 4 2 1 2 1 1 2 5 6 5 10 7 5 5 6 7 8 10 10 12 12 12 11 11 12 13 14 14 15 18 22 25 26 26 25 25 24 23 22 23 21 19 18 17 17 19 18 17 17 16 16 16 14 12 12 12 12 11 11 10 9 7 6 6 7 7 9 11 12 13 14 15 15 15 13 10
3 4 5 3 1 0 3 2 2 3 3 4 3 1 3 5 3 2 3 2 3 3 3 2 1 1 2 3 6 7 10 13 11 9 7 6 7 9 11 10 11 13 12 12 12 13 13 14 15 15 16 19 23 26 26 26 25 25 23 23 23 22 21 19 18 18 19 19 18 18 17 17 17 16 14 13 12 12 12 12 12 10 8 7 7 7 9 10 11 12 13 14 15 16 15 12 10
3 4 5 2 1 1 3 3 3 2 4 5 5 4 3 7 3 1 1 4 2 4 3 4 3 1 4 5 9 12 15 15 13 11 8 7 8 9 10 9 9 10 11 12 12 13 14 15 16 16 16 17 20 24 26 26 26 25 24 23 23 23 22 20 19 19 20 20 19 19 18 18 18 17 16 14 13 13 13 13 12 11 10 9 8 9 11 12 12 13 13 13 14 15 14 12 10
5 4 3 1 2 3 5 6 6 3 3 5 4 4 1 5 6 3 2 3 3 4 5 5 5 5 6 8 12 14 15 14 12 11 10 8 8 9 9 9 9 9 10 11 12 13 14 16 17 18 18 18 19 21 24 26 26 26 25 24 23 23 23 22 21 20 21 21 20 20 19 19 18 18 17 15 13 13 14 14 13 13 12 10 10 10 12 13 13 14 14 14 15 15 14 11 11
4 3 2 2 5 4 5 7 5 3 2 5 4 2 1 4 4 3 4 6 6 6 7 2 4 8 7 9 11 14 14 15 13 11 11 12 13 13 15 15 14 13 12 12 12 13 15 17 18 19 20 19 19 21 22 24 26 26 26 25 24 23 23 23 22 21 21 21 21 21 21 20 19 19 19 17 14 14 16 14 14 15 13 12 11 11 13 13 14 14 14 15 15 15 14 11 12
2 4 2 4 6 4 4 5 6 5 1 4 5 2 1 5 3 2 3 7 7 5 6 3 4 7 8 9 12 16 15 16 16 15 16 16 16 15 15 16 16 16 15 15 14 13 14 17 19 20 21 21 20 21 22 23 24 25 25 25 24 23 23 24 23 22 22 22 22 22 21 20 19 19 19 18 16 15 16 16 15 16 15 13 11 12 13 12 13 14 15 16 16 16 16 12 12
2 3 3 5 3 2 4 6 6 5 3 2 2 4 5 5 1 1 1 5 9 6 4 3 4 7 8 9 12 17 18 19 21 21 20 19 18 18 18 16 15 15 13 13 13 13 13 15 18 20 21 21 21 21 22 23 23 24 24 24 24 24 23 24 23 22 22 22 22 22 21 20 20 20 19 18 17 16 17 17 16 17 17 15 13 13 12 12 14 15 16 17 17 17 17 13 12
1 2 4 5 3 2 5 4 5 3 2 1 2 5 6 3 0 3 2 3 7 2 3 4 3 5 4 7 9 13 17 17 19 21 20 19 19 20 21 20 18 17 15 13 11 10 11 12 15 18 20 22 22 21 22 23 23 23 23 23 23 23 23 22 22 22 23 23 23 23 22 20 21 21 18 18 18 17 17 18 18 18 18 17 15 13 12 12 14 17 18 17 18 18 17 15 13
1 3 2 3 4 3 5 1 3 2 2 3 2 4 2 4 6 3 4 8 7 2 3 2 4 6 9 11 10 11 12 12 15 17 18 19 20 21 23 23 22 21 19 18 14 11 9 10 13 15 18 20 21 21 21 22 22 23 23 23 22 23 23 21 19 21 24 24 24 24 22 22 22 21 19 18 19 18 17 19 19 19 19 19 16 15 13 14 16 18 18 17 18 18 18 17 15
3 2 4 2 3 5 5 2 2 1 2 6 2 3 3 4 6 2 4 5 4 5 6 9 12 14 15 13 11 10 11 12 14 16 17 19 19 19 22 24 23 23 22 21 19 14 10 8 11 14 15 16 19 20 20 20 21 21 21 22 22 22 22 21 17 18 21 22 23 23 22 21 21 21 20 19 20 20 19 19 19 18 19 20 18 16 14 16 17 17 18 19 19 19 19 18 17
3 4 4 1 2 6 6 5 6 4 6 4 1 5 6 6 3 3 5 3 4 4 9 10 11 14 14 12 11 10 11 14 16 18 20 21 21 22 24 25 25 25 25 24 23 19 14 9 8 11 12 12 15 18 19 19 19 19 19 20 20 20 20 19 18 18 20 21 21 23 25 25 22 20 21 20 19 20 20 19 18 18 20 20 19 17 17 17 15 16 20 21 20 21 20 19 18
4 5 3 3 5 6 5 6 6 4 4 2 1 8 6 2 1 3 3 3 2 6 11 7 10 13 11 10 10 10 11 14 17 18 19 22 25 27 27 27 26 26 26 25 25 23 18 12 6 5 7 8 10 14 16 16 17 17 17 18 18 19 18 17 17 16 17 18 19 20 23 25 23 19 19 20 20 21 20 19 19 21 22 23 22 20 20 17 14 20 22 21 22 22 21 20 19
4 3 3 4 7 7 3 5 5 2 4 3 4 9 5 3 2 2 4 5 2 9 11 7 11 11 9 9 8 11 12 14 17 18 21 25 27 28 28 28 28 26 26 26 26 24 20 15 10 5 1 3 4 7 11 13 14 15 15 15 16 17 17 17 16 16 16 17 18 20 21 22 21 20 20 20 20 20 21 20 21 22 21 21 21 20 18 17 21 24 20 20 23 22 20 20 20
2 0 5 6 7 7 4 5 6 1 3 4 7 6 4 2 1 2 3 6 4 11 9 9 11 8 8 8 8 10 12 15 18 20 21 22 22 23 25 27 27 25 26 27 26 25 22 19 15 10 7 4 3 1 5 9 10 11 12 12 12 13 14 14 15 15 14 14 14 16 19 18 17 19 20 21 20 19 19 19 20 21 18 17 18 17 18 22 25 23 19 21 23 21 20 21 21
1 3 4 8 8 7 6 4 3 0 1 4 6 3 4 2 4 1 4 4 7 11 8 8 9 7 8 7 7 8 11 16 19 20 19 19 20 21 23 24 24 24 25 25 26 27 25 22 19 15 12 10 8 6 2 2 4 6 7 8 8 9 10 11 11 11 10 10 11 12 14 14 14 16 16 17 18 19 18 18 18 17 17 18 18 20 22 24 23 21 21 22 21 20 21 21 22
2 3 2 6 7 6 5 2 3 3 0 2 3 3 5 7 7 2 5 3 7 9 8 7 7 7 7 7 7 7 12 16 17 19 20 21 21 22 23 23 24 24 24 26 28 28 28 25 23 19 16 15 13 11 8 6 4 3 3 3 4 5 7 9 10 11 11 11 13 14 14 15 14 13 13 13 15 18 19 20 19 16 16 18 19 20 22 22 22 22 23 22 21 20 21 21 22
2 2 2 3 2 5 6 1 1 2 1 2 3 2 6 9 6 3 5 3 7 8 7 7 7 7 6 6 7 6 10 15 17 20 22 22 22 22 23 24 25 25 25 26 28 28 28 28 26 24 21 19 17 14 12 10 8 7 6 4 3 3 4 6 7 8 9 11 12 13 13 13 13 12 11 11 12 15 17 18 18 17 18 20 20 19 21 22 23 22 21 21 20 20 21 21 21
3 1 3 3 1 5 9 3 1 1 2 5 4 2 6 9 5 3 6 6 10 9 7 7 7 7 7 6 7 6 8 13 18 21 23 23 22 23 23 24 25 26 26 26 26 27 28 28 28 28 27 24 22 19 16 14 13 12 10 9 8 6 5 5 6 7 6 6 6 6 7 8 10 12 13 14 14 15 17 16 16 17 19 20 18 18 21 21 20 21 20 20 20 21 21 20 20
3 0 3 3 2 3 7 3 1 1 1 4 3 2 4 7 6 5 10 9 10 9 7 7 7 7 7 6 6 6 7 11 16 21 24 23 22 23 23 24 25 26 27 27 27 27 28 28 28 29 30 29 28 25 23 22 21 21 20 20 19 18 17 17 16 14 14 15 14 14 12 9 8 8 8 9 10 12 14 15 16 17 18 18 17 18 19 19 19 19 20 20 21 21 20 20 20
3 1 2 4 3 2 4 3 4 5 3 3 3 1 5 9 7 7 12 9 9 9 7 7 6 6 6 5 6 6 7 8 11 18 21 21 22 22 23 24 25 26 27 27 28 28 28 28 28 28 29 30 30 30 29 28 27 27 27 27 26 26 27 26 24 21 22 21 20 20 17 14 14 13 12 10 7 6 8 10 12 12 13 14 15 16 16 16 17 18 20 20 21 21 21 20 19
4 2 3 3 3 3 4 4 3 6 6 4 2 2 8 12 8 7 10 8 9 9 6 6 6 6 5 6 6 6 7 8 10 16 19 20 22 23 23 24 26 27 28 28 28 28 28 28 27 27 27 28 28 28 29 29 29 30 29 28 28 29 29 28 27 27 26 25 24 24 22 20 20 18 17 15 13 11 10 10 10 10 10 10 10 11 11 12 14 15 17 18 19 20 20 19 19
6 5 4 4 3 4 5 5 4 1 3 4 4 5 7 10 7 7 7 7 9 7 6 6 5 5 5 5 6 6 7 7 10 15 18 20 22 23 23 24 26 27 28 29 29 30 30 29 29 29 28 26 25 24 25 25 27 28 28 28 29 30 29 28 29 29 28 27 26 25 24 23 22 21 21 20 19 17 16 16 14 13 12 11 10 9 9 11 11 11 12 13 14 15 16 17 18
5 3 3 4 4 5 4 4 5 0 0 5 4 4 7 7 5 7 5 5 8 6 6 6 4 5 5 5 5 5 5 5 10 15 18 21 22 23 23 24 26 28 29 30 31 31 31 30 30 30 29 26 25 25 24 24 25 26 28 29 30 31 29 28 29 29 28 27 26 26 25 25 22 22 22 21 21 21 20 19 19 19 17 16 15 13 13 13 13 13 12 12 13 13 14 14 15
3 2 2 3 4 6 5 3 5 2 2 4 1 2 8 5 4 6 5 6 7 4 5 5 5 5 4 5 5 4 3 5 10 14 17 20 21 21 22 24 27 27 28 30 31 31 31 31 31 30 28 27 28 27 26 26 26 26 28 29 29 30 29 29 30 30 27 26 26 26 26 26 25 24 23 22 21 21 21 20 20 19 18 17 17 16 15 14 15 15 15 14 12 12 13 13 14
2 2 1 4 3 4 6 3 4 3 2 4 4 4 6 2 5 5 6 6 5 4 4 4 4 5 4 4 4 4 4 5 7 10 14 19 20 20 22 25 26 26 27 29 30 30 31 31 31 29 28 27 27 27 27 28 27 26 27 28 29 30 31 30 29 28 26 26 26 25 25 25 25 25 25 24 23 23 22 21 20 19 18 17 16 16 16 16 16 16 15 14 13 12 11 11 12
3 3 3 4 2 0 3 3 4 3 1 2 2 4 5 1 4 5 6 4 4 5 5 5 4 5 4 3 3 4 5 5 5 6 11 15 18 20 22 23 24 26 28 29 30 31 31 30 30 29 28 27 26 25 26 26 25 25 25 26 27 28 29 27 27 27 26 26 26 25 25 24 23 23 24 24 24 24 23 23 22 21 20 19 18 18 18 18 17 16 15 15 14 13 11 10 12
3 5 5 5 3 5 6 3 4 3 3 1 2 4 5 1 2 2 2 3 4 4 5 6 5 4 3 3 3 4 4 3 4 5 7 12 15 17 20 21 23 26 28 29 30 30 31 30 29 29 29 28 27 25 24 23 23 23 23 23 24 25 27 27 28 28 28 28 28 27 26 24 23 22 22 23 23 23 23 23 22 21 21 21 20 20 20 19 18 17 16 16 15 14 12 11 11
4 5 9 9 7 7 5 2 4 3 3 2 2 2 5 4 1 3 2 2 3 3 4 5 4 4 3 3 3 3 3 3 3 4 6 9 12 16 19 20 22 25 26 27 29 30 31 31 30 30 29 29 27 27 25 24 25 25 26 27 27 28 30 30 29 30 30 30 30 29 28 27 26 25 24 23 22 22 22 22 22 21 21 21 20 19 19 19 19 19 18 16 16 14 12 12 12
2 4 8 9 6 5 4 2 3 1 2 2 2 1 4 6 4 4 4 3 3 2 3 2 1 2 2 2 2 2 2 3 3 5 6 9 12 15 17 18 20 22 23 25 28 30 31 32 32 32 31 30 29 28 27 27 29 31 32 33 33 33 32 30 30 31 32 32 32 32 32 32 32 31 30 29 27 25 24 23 22 22 21 21 20 19 19 19 19 18 17 17 17 15 14 13 13
3 4 5 6 6 5 5 5 4 2 3 3 3 1 2 4 4 3 6 6 3 1 1 1 1 1 1 0 1 1 1 2 2 3 5 8 11 13 13 14 17 19 21 25 28 30 31 31 32 32 32 31 30 30 29 30 31 33 34 36 36 35 33 31 31 32 32 31 32 33 34 34 34 34 34 34 33 31 30 29 27 26 25 24 22 22 21 19 18 17 17 16 16 16 16 14 13
4 4 6 6 6 5 4 5 2 1 1 4 4 0 1 5 4 1 3 4 3 5 6 5 4 4 3 2 2 1 1 1 2 3 4 7 10 11 11 13 16 18 21 25 27 28 29 29 30 30 31 31 30 30 30 31 31 32 33 34 35 34 32 32 31 31 31 31 33 33 33 33 33 33 34 34 34 33 33 32 31 31 31 29 28 27 25 23 21 19 18 17 16 16 16 15 15
4 6 7 6 6 5 4 5 3 2 1 4 6 3 2 5 5 1 2 4 5 7 6 5 5 5 4 4 3 1 0 1 2 3 4 6 8 9 11 13 16 19 21 23 25 26 27 27 28 29 30 29 29 29 29 30 30 31 31 32 33 32 31 30 30 31 31 31 32 32 32 33 32 32 32 32 32 32 31 31 31 31 31 31 31 30 30 29 27 25 22 20 18 17 16 15 15
6 6 6 6 5 5 3 2 4 3 2 6 6 4 2 3 5 3 4 3 4 6 5 5 5 5 5 5 4 3 1 0 1 3 4 5 7 9 11 14 16 18 20 23 24 24 25 25 26 28 28 27 27 27 28 29 29 29 30 30 31 31 29 30 31 31 31 31 32 31 31 31 31 31 31 31 31 30 30 29 29 29 29 29 29 29 30 29 29 28 26 25 23 22 20 17 15
6 4 4 4 2 4 4 4 3 1 5 5 3 2 2 3 5 4 4 3 3 5 6 9 9 7 7 5 5 4 3 1 0 1 2 5 7 9 11 14 15 17 20 22 22 22 23 23 24 26 26 25 25 25 26 28 28 29 29 29 30 29 29 30 31 30 29 30 30 29 29 29 30 30 30 30 30 29 29 28 28 28 28 28 28 27 27 27 27 27 26 26 26 25 24 22 20
4 4 5 4 2 2 2 2 0 3 5 3 1 1 3 5 6 5 4 4 3 4 5 8 10 9 8 6 5 4 2 2 1 1 1 3 5 7 10 12 14 17 19 20 21 21 21 22 22 24 25 24 24 24 25 27 27 28 27 28 28 28 28 28 28 28 27 27 27 28 28 28 29 29 29 29 28 28 27 27 27 27 27 27 27 26 26 25 25 25 25 25 25 24 24 23 22
4 5 5 4 2 1 2 3 1 3 4 2 2 1 1 4 4 4 4 4 4 4 5 6 8 9 8 7 5 4 3 3 3 3 3 3 5 6 9 12 13 16 18 19 20 20 20 21 21 23 24 23 23 24 25 26 26 26 26 26 26 26 27 27 26 26 25 25 25 26 27 27 27 28 28 27 26 26 25 25 25 25 25 25 25 25 25 25 25 25 25 24 24 23 22 22 21
3 3 4 4 4 4 4 4 3 4 2 2 2 1 3 4 2 3 4 4 3 3 5 6 6 6 6 5 5 4 4 4 3 3 4 5 6 7 9 11 13 15 17 18 19 19 19 20 20 22 23 22 22 23 23 25 25 24 24 24 24 24 25 25 24 24 23 23 23 24 24 25 25 26 26 26 26 26 25 25 24 24 24 24 24 24 25 25 25 25 25 24 24 23 22 22 21
1 2 4 2 4 4 1 2 5 3 2 3 2 3 4 4 1 2 2 3 3 2 2 6 7 5 5 5 5 5 5 5 4 4 5 6 7 8 9 11 13 15 16 17 17 17 18 19 20 21 21 21 21 21 22 23 22 22 22 22 22 22 22 22 22 21 21 21 21 22 23 24 25 26 27 27 28 28 28 27 27 26 25 25 25 25 25 25 25 25 25 25 25 24 23 23 22
2 2 3 4 3 6 3 2 1 3 1 4 2 3 3 0 1 2 1 3 3 1 2 7 8 6 6 6 6 6 6 6 5 4 5 8 9 9 10 12 13 15 16 16 16 16 16 17 18 19 19 19 19 19 20 20 20 20 20 20 20 20 20 20 20 19 19 19 20 22 23 24 25 27 28 28 29 30 30 30 30 30 29 28 28 27 27 27 27 26 26 26 26 26 25 24 24
5 3 5 3 2 4 3 1 2 3 3 4 1 4 4 1 2 2 1 2 4 4 4 5 6 6 6 7 7 7 7 6 5 5 7 9 11 11 12 12 13 14 15 15 15 15 15 15 16 17 17 17 17 17 17 17 17 18 18 18 18 18 17 17 17 16 16 16 18 19 20 22 24 25 26 27 28 29 30 30 30 31 31 31 31 31 31 30 30 29 28 27 27 27 27 26 26
5 4 3 3 3 2 2 2 1 1 3 4 2 2 3 4 4 2 5 8 8 7 6 7 8 9 8 9 9 8 7 5 5 5 6 9 12 13 13 13 13 14 14 14 14 14 14 14 13 14 14 15 14 14 14 14 14 14 14 14 14 14 13 13 12 12 13 14 16 17 18 19 21 23 24 26 28 29 29 30 30 30 30 30 31 31 32 32 32 32 31 30 29 28 29 28 28
3 1 1 2 2 3 2 2 2 2 3 3 4 2 3 5 6 8 11 12 11 10 8 10 11 11 10 9 9 8 7 7 6 6 6 10 14 14 14 15 14 14 13 13 13 12 12 12 12 12 13 13 12 12 11 11 11 11 10 10 9 9 9 9 9 9 11 13 14 16 17 19 20 22 23 25 27 29 30 31 31 31 30 30 31 31 32 32 32 32 32 32 31 31 31 31 30
3 3 3 1 1 2 1 1 2 3 3 2 3 5 5 4 3 8 10 10 13 14 13 12 11 11 11 9 9 9 8 8 7 6 7 11 14 15 15 15 14 14 13 12 12 11 11 11 11 12 12 11 11 10 9 8 8 7 6 6 6 5 6 7 7 9 11 12 14 15 17 18 19 21 23 25 26 28 29 30 30 31 31 31 32 32 32 32 31 31 31 31 32 32 32 33 33
5 5 6 6 4 3 2 3 1 2 2 3 3 6 7 3 2 4 5 6 11 13 12 11 11 13 13 10 9 10 9 8 7 7 8 12 15 15 16 15 15 14 13 12 12 11 11 11 11 12 11 11 10 8 8 7 6 5 4 4 4 4 5 6 7 9 10 12 14 15 16 17 18 20 22 23 25 26 27 28 29 29 30 31 31 32 31 31 31 32 32 32 31 31 32 32 33
Wind_Direction
339 338 336 332 329 326 349 54 77 334 70 72 320 53 246 222 224 276 277 286 321 254 231 293 136 123 86 144 188 195 175 169 169 120 192 244 310 292 190 188 187 172 181 181 178 182 186 184 183 184 186 187 188 189 191 193 191 194 192 191 193 186 186 184 176 170 158 152 158 158 153 151 153 154 152 151 153 156 156 154 150 146 136 130 132 126 113 107 103 95 87 84 85 90 95 94 94
340 337 341 336 338 2 293 74 89 341 53 73 282 169 257 296 342 232 229 229 209 268 301 292 133 68 50 91 127 142 217 222 191 169 267 283 312 268 196 186 190 166 181 184 180 182 187 187 184 185 188 189 191 192 192 195 194 195 195 195 195 192 191 190 186 179 166 160 162 162 160 159 157 159 159 158 162 161 162 162 155 154 149 136 137 132 114 108 109 102 88 78 71 74 82 85 93
341 337 347 343 352 43 66 41 88 57 71 101 280 243 283 11 231 236 226 224 223 295 316 263 162 92 69 33 45 123 292 269 223 216 279 285 303 274 204 190 180 159 180 186 184 184 189 189 187 187 190 191 193 195 195 197 197 198 200 200 199 198 196 196 196 185 171 166 165 166 167 164 161 161 164 165 169 166 162 164 158 158 156 147 152 145 120 113 110 106 106 94 81 61 55 49 69
345 343 349 353 72 40 62 41 125 114 102 171 316 268 259 192 230 254 243 247 252 302 330 171 206 206 113 12 283 138 295 278 231 196 274 301 282 286 207 193 186 167 179 189 190 188 191 191 189 189 191 193 195 198 198 199 200 202 204 204 202 201 200 198 200 188 176 170 167 174 173 169 166 165 172 176 174 168 164 163 159 165 161 155 161 153 130 117 96 97 119 148 206 265 280 291 286
352 355 357 28 115 45 93 72 108 96 162 184 77 282 256 215 238 278 265 283 270 196 137 108 340 282 109 194 172 147 257 256 271 216 254 320 279 258 200 199 199 180 181 192 194 193 194 193 193 191 191 194 197 200 201 203 203 205 206 206 205 203 202 201 199 190 183 179 175 181 180 177 177 174 183 185 177 172 171 163 160 174 161 151 161 159 142 118 94 81 66 253 247 268 295 293 284
2 12 26 54 102 103 117 92 108 84 216 174 92 280 279 235 234 286 291 303 269 148 136 107 85 337 359 263 199 201 224 79 327 227 250 305 274 235 199 205 205 193 188 194 199 199 198 196 197 194 194 197 199 203 205 205 206 207 208 206 206 205 204 203 200 194 189 189 188 189 191 191 189 184 191 188 180 178 176 170 168 176 157 151 164 154 134 114 89 355 356 301 278 310 321 309 291
13 9 31 59 64 42 99 120 165 204 219 171 125 268 284 260 230 307 323 324 69 64 36 229 160 94 290 302 309 243 238 250 271 254 277 282 253 225 200 206 206 202 193 197 203 204 203 200 200 198 197 200 200 205 208 206 207 208 209 208 208 207 205 206 203 198 194 194 195 194 199 200 191 185 194 199 190 181 175 176 175 178 173 153 155 127 116 104 42 330 334 319 312 335 334 326 308
25 20 21 80 42 28 88 108 211 209 325 223 236 249 269 268 210 253 323 315 320 350 356 292 299 94 290 4 333 271 307 276 284 287 277 264 237 220 200 206 210 208 199 199 205 208 208 205 204 203 202 204 202 205 210 209 209 208 210 209 209 209 207 209 207 202 198 197 198 198 203 201 191 186 195 214 208 187 174 180 182 183 184 134 130 122 124 88 7 319 322 315 313 331 331 331 323
34 34 117 75 79 32 51 32 287 238 277 271 272 260 270 264 176 125 290 294 300 295 305 284 340 359 307 354 288 286 355 328 311 298 267 237 226 216 204 211 220 218 203 199 205 211 211 210 208 207 207 207 206 207 212 212 212 211 210 211 211 211 209 211 211 207 202 200 201 201 205 203 199 199 201 214 219 202 179 182 184 179 179 159 169 178 193 230 334 311 306 291 298 319 325 330 329
36 27 107 71 83 45 26 319 303 255 270 267 270 262 266 264 172 118 214 287 306 261 295 283 96 334 319 309 283 314 348 335 337 312 257 224 224 217 212 218 230 225 210 203 204 211 213 214 212 211 211 211 210 209 214 215 215 213 212 214 215 215 212 213 215 212 207 203 203 203 205 205 206 211 210 215 223 216 194 188 188 181 180 195 212 224 243 263 299 299 285 281 296 310 316 325 329
37 1 92 76 71 76 126 228 286 279 285 289 287 265 241 219 157 98 192 296 312 311 299 41 92 255 356 309 269 297 330 339 14 236 250 220 225 222 220 226 234 225 216 213 210 212 214 217 217 216 214 214 215 213 216 218 218 217 216 217 219 220 218 218 217 215 211 207 205 205 206 207 210 215 215 221 225 218 205 198 199 194 189 202 219 249 282 291 306 297 288 291 299 305 308 316 323
70 349 62 81 109 156 166 206 280 287 306 330 329 295 196 165 103 319 289 301 338 341 287 177 146 170 33 317 274 303 344 13 155 206 230 219 228 223 226 232 235 228 218 219 218 218 216 219 220 220 218 218 219 218 219 221 221 220 220 222 222 223 224 225 222 218 214 211 211 208 210 211 213 219 219 224 226 218 211 208 213 212 213 223 240 282 304 310 310 290 290 297 299 303 307 314 319
107 118 79 84 148 145 141 190 276 304 331 345 263 285 123 151 233 220 212 286 344 9 298 211 162 94 2 284 301 317 354 29 119 221 235 229 236 227 231 233 235 235 225 224 222 222 220 221 222 224 223 220 221 222 222 223 224 223 224 226 226 227 229 229 227 222 216 214 216 213 215 216 219 224 224 228 228 221 213 211 218 222 233 247 267 296 313 312 298 279 286 294 296 302 305 312 316
131 151 104 104 82 131 156 196 307 96 299 277 255 295 335 234 212 188 154 334 275 192 309 232 144 93 282 301 327 302 323 359 0 279 267 248 249 239 236 234 235 237 234 232 228 226 223 224 225 226 226 224 223 223 225 225 226 226 227 229 229 230 231 231 229 225 218 216 220 219 220 223 226 230 229 234 232 225 216 213 218 220 234 252 270 290 303 299 295 288 288 291 294 299 302 308 309
131 130 90 111 47 77 178 176 132 130 213 255 273 298 330 269 154 141 175 276 280 219 294 301 133 280 271 309 293 264 308 346 348 315 294 267 259 247 242 239 238 237 237 240 236 232 228 228 228 228 229 227 225 224 225 226 227 229 228 231 232 232 233 234 232 228 222 219 222 223 224 227 231 233 234 237 234 229 220 217 221 222 234 246 265 285 291 297 302 298 294 295 296 297 301 304 300
113 108 69 91 92 301 185 169 135 130 231 238 276 307 354 298 142 134 235 152 289 303 352 256 190 291 199 202 260 282 319 331 332 322 306 280 265 252 247 243 243 240 239 245 247 243 236 235 234 232 232 230 228 226 227 228 229 230 231 233 233 233 234 236 234 230 227 225 226 227 229 232 235 237 237 241 240 233 225 223 224 228 237 243 262 279 285 297 305 303 299 300 299 299 302 301 292
62 76 69 61 148 202 191 181 169 157 258 271 319 22 34 304 297 256 242 100 282 313 347 263 251 230 205 239 288 310 320 323 326 320 310 290 272 263 259 256 257 249 244 250 255 255 246 242 241 238 237 234 232 230 229 229 230 231 232 234 235 235 235 237 236 232 230 230 231 231 232 235 239 241 240 243 244 236 232 230 231 235 238 245 267 280 286 297 303 303 302 301 302 303 304 297 286
53 78 91 21 188 190 182 182 193 174 289 281 329 25 48 297 313 317 327 35 351 325 302 270 281 277 257 285 311 323 327 333 335 325 319 318 319 316 311 308 298 278 263 259 259 260 254 248 246 244 241 238 236 234 232 231 231 231 232 235 236 237 237 238 238 236 235 233 234 235 237 239 241 245 245 245 244 240 237 236 242 243 241 251 266 277 285 295 301 302 300 300 303 307 307 292 278
82 115 79 258 204 208 196 178 194 193 284 273 296 345 198 250 280 347 323 309 348 338 300 303 299 300 308 307 324 337 341 348 351 349 348 354 356 349 339 331 321 308 295 282 274 269 263 255 250 247 245 241 238 237 235 233 233 233 233 235 237 237 239 240 240 239 239 236 235 237 239 242 242 246 248 248 247 241 240 243 246 244 244 254 266 277 281 289 297 297 296 299 304 310 311 289 268
125 116 65 248 214 239 233 191 208 216 251 287 293 341 284 251 243 351 318 300 322 304 276 318 322 310 318 316 343 359 7 14 17 21 19 16 13 8 357 345 335 327 314 298 285 279 274 266 257 250 247 245 241 238 237 235 233 234 234 236 238 237 237 241 242 241 242 241 239 239 242 245 246 249 252 253 250 245 243 245 245 245 247 250 263 273 273 283 291 290 292 298 305 311 315 294 263
125 128 174 226 194 269 242 200 222 227 196 226 292 349 308 281 193 199 17 333 309 287 228 231 283 297 309 327 2 21 30 30 29 30 27 23 21 18 12 5 356 350 338 316 295 280 275 272 265 256 250 247 245 241 238 237 234 234 234 235 239 238 237 241 241 241 245 245 242 242 243 247 249 249 252 253 252 251 246 246 246 247 247 248 263 267 264 279 285 286 291 297 304 309 316 303 268
132 222 191 193 148 262 258 197 216 211 149 221 324 322 300 313 283 194 149 278 275 326 122 197 267 303 343 15 15 28 34 30 28 27 23 19 16 13 11 10 9 9 8 358 336 304 277 264 262 258 254 249 246 244 241 240 236 233 233 232 236 238 237 240 241 243 248 245 244 247 246 248 251 249 249 249 252 253 247 249 250 249 250 249 258 260 258 277 283 284 287 293 302 305 311 306 281
174 277 281 218 171 227 276 226 214 129 64 287 277 286 322 340 305 220 192 237 247 8 60 121 43 38 63 56 36 34 31 25 24 22 20 15 12 9 7 9 9 10 13 12 5 346 308 270 254 248 250 250 247 245 242 241 239 236 235 233 233 237 239 240 240 244 245 238 234 241 248 247 247 248 247 246 250 253 253 254 249 247 250 250 256 256 260 280 281 280 282 289 297 299 303 304 291
124 263 308 277 187 220 264 306 290 87 262 262 259 315 312 283 294 320 254 259 293 347 41 73 68 58 60 55 41 37 30 23 20 19 21 18 13 12 11 12 13 14 16 16 14 7 345 299 261 243 240 247 249 246 243 241 241 239 238 236 235 237 244 248 249 250 249 245 237 235 244 246 245 249 248 247 252 254 254 254 251 252 252 251 252 248 263 279 273 278 287 287 291 295 297 299 295
136 223 274 286 232 247 273 297 287 275 255 252 307 293 268 231 241 313 300 5 6 13 53 64 70 58 53 51 39 34 29 23 16 13 18 17 16 18 19 18 18 19 18 17 17 16 7 338 287 252 237 238 245 246 244 241 241 241 239 240 239 239 244 248 252 252 249 253 252 243 242 240 240 248 249 248 251 252 252 250 252 258 259 259 255 257 272 271 268 290 292 287 290 292 293 295 295
207 205 250 287 290 289 300 292 279 276 254 169 268 285 283 257 253 288 325 24 334 49 58 47 62 56 48 48 39 33 29 22 14 11 14 16 19 19 18 17 19 20 17 19 21 23 21 11 346 278 245 231 236 241 243 242 241 242 242 241 243 246 248 248 250 250 244 246 251 250 244 236 233 242 249 250 249 250 254 255 256 255 252 251 251 258 263 260 284 298 287 288 292 290 291 292 292
192 195 266 273 294 302 289 276 286 311 272 193 217 277 296 332 307 269 353 344 322 66 56 39 59 55 46 47 39 37 33 25 17 17 17 15 18 14 12 15 17 19 20 23 25 28 31 30 30 22 321 225 225 235 240 242 242 243 245 246 247 251 256 260 260 260 259 258 259 259 251 242 241 245 251 256 253 252 257 260 262 259 250 244 244 248 254 271 292 287 278 290 290 285 288 288 287
135 101 308 295 315 306 270 276 286 292 278 183 176 259 306 348 272 193 333 337 42 75 58 41 56 51 45 45 38 39 33 27 23 26 22 13 12 10 11 14 14 20 25 26 29 33 38 41 44 47 54 69 80 191 239 240 244 246 250 254 255 258 262 265 269 273 276 276 274 269 259 253 254 251 249 251 247 249 260 263 263 266 265 265 264 263 267 277 280 272 273 286 283 280 286 285 285
79 51 334 307 344 326 293 309 303 146 255 159 150 283 319 269 225 214 348 3 64 71 60 46 52 46 42 39 38 40 30 28 28 27 22 14 15 14 17 18 18 23 28 32 37 41 43 46 50 53 58 65 68 64 49 250 254 261 267 274 275 279 281 281 289 300 304 299 288 282 275 266 261 257 259 262 254 249 254 255 255 264 274 276 275 270 269 272 274 272 273 275 276 279 285 286 285
317 37 36 314 352 328 296 11 350 357 308 159 136 289 293 263 250 307 352 33 72 63 57 47 46 43 37 34 35 35 29 28 28 24 20 19 20 20 22 25 28 30 34 41 45 47 49 53 56 58 61 65 68 67 64 60 51 34 9 343 329 319 305 294 290 287 287 288 280 274 273 271 268 267 271 275 270 262 257 253 249 256 270 267 261 262 265 268 269 269 269 271 275 280 283 286 286
323 353 44 352 348 284 293 328 342 1 5 49 109 207 268 276 286 8 335 3 82 70 54 45 42 39 31 31 32 31 29 28 27 24 22 23 23 26 28 30 35 37 40 45 48 51 55 58 62 64 66 69 70 71 72 73 74 73 69 58 29 354 309 288 287 280 273 275 273 268 269 271 274 280 281 277 274 271 267 264 261 262 268 263 257 261 265 266 266 265 268 271 273 278 280 283 285
26 323 310 338 184 267 309 319 164 145 338 25 92 191 275 279 281 40 352 9 75 77 57 45 40 36 31 29 29 27 24 24 26 23 22 25 26 29 31 34 38 41 44 48 52 57 60 62 65 68 70 72 74 75 76 79 81 80 77 75 71 62 47 25 17 12 4 349 331 319 305 288 277 276 273 270 269 270 269 269 272 270 268 265 263 269 270 269 270 269 269 268 269 273 276 280 285
357 129 251 274 205 277 321 334 347 13 1 20 55 210 283 281 273 32 19 22 68 81 66 51 43 38 34 30 29 29 22 21 21 18 19 24 29 33 36 39 42 45 48 52 56 59 61 64 67 71 73 76 78 79 81 81 81 81 79 77 75 72 68 63 57 48 44 38 33 29 18 3 351 330 306 287 277 275 274 273 276 274 270 269 270 275 277 277 277 273 271 269 268 269 271 275 281
309 21 226 250 217 236 304 307 339 24 55 8 17 221 257 275 288 20 23 24 68 80 71 59 49 41 37 33 34 31 26 26 17 10 14 22 31 39 43 45 48 52 54 56 59 61 62 65 68 73 77 81 82 84 85 85 86 84 82 80 78 76 73 70 67 63 59 55 50 46 42 34 27 22 14 1 347 325 307 297 295 291 285 283 279 278 278 277 276 272 270 268 264 263 265 271 278
216 200 202 251 238 228 265 271 303 14 18 344 344 277 267 277 297 25 24 28 72 80 74 69 58 49 43 38 39 33 31 31 17 10 17 27 35 42 48 51 53 56 58 60 62 64 65 66 68 73 77 80 84 87 88 88 88 86 83 81 79 76 73 70 68 65 63 61 58 54 53 50 46 44 41 35 32 26 17 7 353 340 328 319 306 291 283 280 272 265 265 266 264 260 261 269 276
192 188 165 192 230 248 245 248 266 335 353 297 247 250 268 279 305 18 17 34 75 81 74 70 58 55 49 44 41 36 38 28 14 18 26 34 41 46 51 55 58 61 63 64 65 66 65 67 68 69 71 75 81 84 85 85 84 82 81 79 75 72 72 71 68 65 62 60 59 56 54 52 50 49 49 47 47 45 42 39 36 32 24 15 5 351 340 330 314 298 290 286 282 275 271 273 275
145 148 151 189 222 265 259 257 286 322 195 270 227 229 265 276 325 9 5 47 70 69 77 73 61 60 47 49 46 35 44 30 22 28 34 40 46 50 52 57 62 65 65 66 67 66 66 68 70 70 70 71 74 75 76 78 79 79 79 77 74 71 70 69 67 64 61 59 58 56 54 52 50 48 47 46 46 47 46 44 43 43 42 40 37 32 23 13 5 358 345 327 316 310 300 293 293
117 150 208 253 224 252 262 255 303 357 167 265 329 287 275 285 9 12 18 57 54 39 75 74 63 65 49 50 47 34 42 29 27 30 33 40 45 47 50 55 59 60 61 65 66 66 69 70 72 73 75 75 76 77 78 78 79 81 81 80 78 73 70 67 66 64 62 59 57 55 54 52 51 50 48 47 46 45 44 42 40 41 42 43 44 42 38 34 29 25 17 1 346 334 320 314 317
191 148 189 269 238 269 288 289 334 18 170 269 351 325 281 327 48 31 38 62 57 37 64 69 69 70 54 49 41 38 46 30 25 24 27 36 41 44 49 53 56 58 60 65 68 70 71 71 73 75 78 80 82 83 84 84 85 85 85 84 82 77 72 70 68 65 62 59 56 53 51 49 48 48 47 46 46 45 45 45 44 42 39 38 38 38 36 33 31 30 27 18 8 357 343 335 339
204 164 172 249 236 276 285 294 336 16 114 265 357 326 289 120 82 50 49 76 83 62 64 62 63 70 66 63 44 44 48 33 24 20 25 34 38 42 48 51 55 59 61 64 67 69 71 72 74 76 79 81 85 87 88 89 90 90 89 87 85 82 77 73 69 64 61 59 56 54 51 48 46 45 44 43 43 43 43 44 44 43 42 40 38 38 37 36 35 34 32 28 19 9 4 358 353
238 200 196 227 220 212 229 278 332 358 16 18 66 338 305 249 129 86 70 84 74 49 56 56 41 45 58 64 47 38 42 32 27 22 21 32 38 43 50 54 58 61 62 64 67 70 72 75 76 78 79 80 83 86 90 94 96 95 94 90 86 80 71 65 62 59 58 59 57 55 53 51 50 48 47 45 43 43 42 43 42 41 41 39 38 39 40 38 36 33 30 29 26 17 7 1 355
283 231 207 216 219 221 233 332 16 14 345 338 48 348 297 312 318 174 169 72 57 30 42 54 31 22 38 52 39 21 27 30 32 32 28 35 42 49 54 58 62 64 66 69 73 76 77 79 80 81 81 80 81 83 85 89 89 86 84 81 76 72 65 59 59 61 62 62 61 60 58 55 53 52 50 48 47 45 44 43 42 40 40 39 38 38 39 36 34 32 29 26 28 24 14 7 0
289 251 205 209 206 194 201 161 105 136 249 304 33 187 257 313 314 195 167 105 83 52 44 54 28 24 45 61 32 359 14 24 33 38 36 41 47 50 52 57 64 69 72 76 79 80 81 81 81 81 81 81 81 81 81 81 81 81 81 80 77 76 73 69 69 70 69 69 67 64 62 59 57 56 54 52 51 49 47 46 44 43 43 41 39 38 38 37 35 34 31 28 28 25 22 19 9
232 245 150 154 167 177 183 158 153 215 250 323 358 122 229 287 286 197 148 122 117 153 152 172 202 199 183 184 312 331 7 10 32 41 35 44 54 56 57 62 70 75 78 81 81 81 81 81 81 81 81 81 81 81 81 80 82 84 85 84 82 80 80 78 76 75 74 72 70 66 64 61 58 57 55 53 52 51 49 48 47 46 44 42 39 38 37 33 30 29 26 27 26 25 26 25 18
233 192 123 128 147 154 137 124 139 316 356 311 306 67 232 265 276 288 149 154 181 198 194 193 198 206 201 203 227 274 1 1 38 52 40 46 61 69 72 75 79 82 83 83 83 83 83 83 83 82 80 81 81 81 81 81 82 84 85 86 85 83 82 81 78 76 73 71 69 66 64 62 59 57 55 53 52 50 49 48 47 46 45 43 42 40 38 34 31 28 24 22 21 22 25 23 20
195 137 103 82 85 86 84 104 109 48 37 252 248 196 203 269 281 271 196 216 212 193 191 195 201 212 214 210 212 211 44 28 36 55 58 61 75 84 86 87 86 87 88 88 88 87 86 85 83 81 80 80 80 79 80 80 80 81 82 83 84 83 81 79 76 72 70 68 66 64 62 60 59 57 55 53 51 49 48 47 46 45 44 43 41 39 38 37 36 34 32 29 25 22 19 19 18
140 115 79 62 51 49 51 69 87 70 271 246 238 214 193 269 277 229 191 213 186 160 166 195 207 217 219 220 217 207 196 71 30 52 73 83 91 96 97 94 92 92 93 93 92 90 88 86 84 83 82 81 80 79 79 79 79 79 79 80 80 79 76 74 71 68 65 64 63 61 60 58 56 54 52 50 49 47 46 45 44 44 43 42 40 38 36 35 34 33 34 33 31 30 25 21 16
115 103 86 87 19 23 32 4 50 129 252 257 263 251 177 219 263 248 212 210 175 164 174 183 192 204 205 210 214 210 213 213 31 52 92 100 101 103 102 99 98 98 97 96 95 93 91 90 89 88 86 84 83 82 81 81 79 79 79 78 77 76 73 70 68 66 63 62 61 59 57 55 52 50 47 45 43 40 39 39 38 37 37 37 36 35 34 33 31 29 29 29 29 29 27 25 22
87 101 98 99 348 0 357 312 195 215 245 260 278 190 185 229 249 237 216 215 217 219 206 186 186 190 192 198 202 203 215 210 183 186 154 120 114 111 106 105 104 102 100 100 100 98 96 95 93 92 91 89 88 86 85 84 82 81 80 79 78 76 73 71 69 67 64 62 60 57 54 51 48 44 41 39 36 32 31 30 29 29 29 28 27 26 26 25 25 23 23 22 22 22 21 21 21
143 144 130 126 124 126 254 265 258 258 250 230 243 177 206 264 261 224 224 246 236 226 236 220 196 186 185 188 186 191 213 216 205 205 203 169 143 128 118 114 111 108 106 106 105 102 100 99 96 95 96 95 93 91 89 87 86 85 83 81 79 76 74 72 70 68 65 61 58 55 52 48 44 40 35 32 28 25 24 23 22 21 21 20 18 17 17 16 15 15 14 14 14 14 13 12 12
176 163 131 140 154 169 222 221 202 243 268 269 265 185 185 210 236 233 242 278 286 250 239 218 196 184 174 165 169 189 211 216 214 210 208 191 161 143 132 125 119 116 114 112 109 107 105 104 102 101 101 100 96 94 92 90 89 87 84 81 78 75 74 72 70 67 63 59 55 51 48 43 39 34 29 26 22 19 18 17 16 15 14 14 12 10 9 8 7 6 6 6 5 4 4 4 3
230 127 108 153 183 155 171 197 172 180 289 288 235 222 216 188 200 273 276 311 332 337 217 180 178 176 160 165 186 198 211 213 207 206 209 201 179 161 147 136 129 124 120 117 115 113 112 110 107 105 103 102 99 96 93 91 90 87 83 80 77 75 72 70 68 63 58 54 49 44 40 35 31 26 22 19 16 14 12 11 10 10 9 8 7 6 4 2 2 1 360 360 359 357 357 357 355
164 124 171 218 184 120 112 257 62 82 263 270 195 232 283 334 261 296 11 327 324 358 187 176 176 173 170 190 203 203 211 209 201 201 203 198 187 174 160 146 138 133 127 123 120 117 115 112 110 107 105 102 99 95 92 89 86 83 79 76 72 69 66 63 60 55 49 44 39 35 29 25 20 16 12 10 7 6 5 4 3 3 3 3 3 2 0 358 357 356 355 354 353 351 349 349 349
123 176 210 197 119 92 98 233 355 42 244 272 224 220 249 188 236 308 61 257 258 232 209 188 183 185 190 206 209 209 212 205 200 203 203 200 190 179 168 155 144 138 132 128 125 122 118 114 111 108 105 102 97 93 89 84 80 76 73 70 66 61 58 55 51 46 39 32 29 25 20 16 13 8 5 2 359 358 357 356 356 356 356 357 356 356 356 354 353 352 351 349 348 346 343 341 341
125 190 189 109 135 155 101 164 230 253 246 283 295 245 233 200 202 206 201 212 213 207 203 197 198 196 199 210 211 212 212 205 205 203 204 203 194 183 171 161 151 144 137 133 130 126 123 121 116 111 105 100 96 91 87 82 75 71 67 64 61 58 54 49 44 36 27 23 20 17 14 11 8 4 0 358 356 353 352 351 351 350 350 349 349 349 348 348 347 347 347 346 345 343 340 337 336
74 113 112 74 159 170 153 153 170 203 230 280 298 294 250 229 198 179 196 200 187 184 193 201 203 199 203 208 203 206 208 205 202 196 200 201 194 186 173 165 159 152 146 140 136 133 129 125 119 111 104 99 95 90 86 80 74 70 67 65 62 58 51 42 35 25 18 17 15 10 7 5 2 359 356 355 353 351 349 348 347 347 346 345 345 344 344 343 342 342 342 341 340 339 337 334 332
132 144 172 196 123 128 201 213 125 142 174 217 277 281 263 253 196 183 197 192 179 183 189 194 200 202 207 209 201 202 205 204 199 191 195 198 194 188 178 170 165 158 155 151 145 141 135 129 122 114 108 106 104 101 98 93 90 89 84 78 69 59 48 32 19 12 7 6 3 359 357 355 353 350 350 349 348 347 346 344 343 343 343 343 342 342 341 341 340 339 338 337 335 334 332 330 328
165 176 187 184 166 133 177 251 198 126 172 184 209 268 269 252 201 201 204 185 185 187 182 183 196 202 206 208 203 203 203 202 196 187 190 193 193 190 182 176 175 171 167 164 159 153 146 138 131 127 125 125 125 124 125 123 118 113 101 82 62 45 32 12 356 349 347 347 347 346 344 343 343 343 344 343 343 342 341 340 339 339 338 339 338 338 338 338 338 336 335 334 333 331 328 326 325